Location: Quedlinburg
(51.7921°N, 11.1414°E)
Time: 05:32:26
(UTC+02:00)

STRAND 1 - Pass Details

Date: 23 March 2026
Orbit: 761 x 775 km, 98.4° (Epoch: 16 April)

Event Time Altitude Azimuth Distance (km) Brightness Sun altitude
Rises 04:31:08 0° 148° (SSE) 3,232 ? -15.9°
Reaches altitude 10° 04:33:28 10° 144° (SE) 2,308 ? -15.6°
Maximum altitude 04:38:25 54° 68° (ENE) 932 ? -14.9°
Drops below altitude 10° 04:43:22 10° 352° (N) 2,315 ? -14.2°
Sets 04:45:43 0° 349° (NNW) 3,244 ? -13.8°
